F4GCF Weather Reports


time (UTC)temp
C
wind
direction
speed
KPH
gust
KPH
rain 1hr
cm
rain 24hr
cm
rain mn
cm
humidity
%
barometer
mb
20260507172428 18 158 3.2 3.2 0.00 0.00 0.00 63 1012.0
20260507171928 18 158 3.2 3.2 0.00 0.00 0.00 64 1012.0
20260507171427 18 129 1.6 3.2 0.00 0.00 0.00 64 1013.0
20260507170927 18 125 3.2 4.8 0.00 0.00 0.00 64 1013.0
20260507170429 18 116 4.8 8.0 0.00 0.00 0.00 64 1013.0
20260507165928 18 112 3.2 4.8 0.00 0.00 0.00 64 1013.0
20260507165428 18 93 1.6 4.8 0.00 0.00 0.00 64 1013.0
20260507164928 18 122 3.2 3.2 0.00 0.00 0.00 64 1013.0
20260507164428 18 141 3.2 4.8 0.00 0.00 0.00 64 1012.0
20260507163928 18 120 3.2 3.2 0.00 0.00 0.00 64 1012.0
20260507163428 18 68 1.6 3.2 0.00 0.00 0.00 64 1012.0
20260507162928 18 25 3.2 3.2 0.00 0.00 0.00 65 1012.0
20260507162427 18 68 3.2 1.6 0.00 0.00 0.00 65 1012.0
20260507161927 18 119 3.2 4.8 0.00 0.00 0.00 65 1012.0
20260507161429 18 139 4.8 8.0 0.00 0.00 0.00 64 1012.0
20260507160929 18 88 1.6 3.2 0.00 0.00 0.00 64 1012.0
20260507160428 18 148 4.8 8.0 0.00 0.00 0.00 64 1012.0
20260507155928 18 135 4.8 4.8 0.00 0.00 0.00 65 1012.0
20260507155428 18 68 3.2 4.8 0.00 0.00 0.00 65 1012.0
20260507154928 18 71 3.2 8.0 0.00 0.00 0.00 65 1012.0
20260507154433 19 68 3.2 4.8 0.00 0.00 0.00 65 1012.0
20260507154012 19 98 1.6 8.0 0.00 0.00 0.00 65 1012.0
20260507153927 19 98 1.6 8.0 0.00 0.00 0.00 65 1012.0
20260507153429 19 97 3.2 4.8 0.00 0.00 0.00 65 1012.0
20260507152929 19 65 1.6 3.2 0.00 0.00 0.00 65 1012.0
20260507152913 19 117 4.8 4.8 0.00 0.00 0.00 65 1012.0
20260507152428 19 117 4.8 4.8 0.00 0.00 0.00 65 1012.0
20260507151928 19 112 3.2 3.2 0.00 0.00 0.00 65 1012.0
20260507151428 19 112 3.2 4.8 0.00 0.00 0.00 65 1013.0
20260507150928 19 45 1.6 3.2 0.00 0.00 0.00 65 1013.0
20260507150431 19 61 3.2 8.0 0.00 0.00 0.00 65 1013.0
20260507145927 19 110 4.8 9.7 0.00 0.00 0.00 65 1013.0
20260507145427 18 131 3.2 8.0 0.00 0.00 0.00 65 1013.0
20260507144927 19 93 3.2 3.2 0.00 0.00 0.00 65 1013.0
20260507144429 19 110 8.0 9.7 0.00 0.00 0.00 65 1013.0
20260507143929 19 137 4.8 9.7 0.00 0.00 0.00 65 1013.0
20260507143428 19 90 1.6 3.2 0.00 0.00 0.00 65 1013.0
20260507142928 19 93 8.0 8.0 0.00 0.00 0.00 65 1013.0
20260507142428 19 99 8.0 11.3 0.00 0.00 0.00 65 1013.0
20260507141928 19 116 4.8 9.7 0.00 0.00 0.00 65 1013.0
20260507141427 19 104 4.8 8.0 0.00 0.00 0.00 65 1013.0
20260507140927 19 99 4.8 8.0 0.00 0.00 0.00 66 1013.0
20260507140429 19 79 4.8 9.7 0.00 0.00 0.00 66 1013.0
20260507135929 18 107 3.2 8.0 0.00 0.00 0.00 66 1013.0
20260507135428 18 106 3.2 8.0 0.00 0.00 0.00 66 1013.0
20260507134928 18 114 3.2 8.0 0.00 0.00 0.00 66 1013.0
20260507134428 18 156 4.8 8.0 0.00 0.00 0.00 66 1013.0
20260507133929 18 123 4.8 8.0 0.00 0.00 0.00 66 1013.0
20260507133428 18 124 4.8 3.2 0.00 0.00 0.00 66 1013.0
20260507132927 18 70 3.2 8.0 0.00 0.00 0.00 66 1012.0
20260507132427 18 128 4.8 9.7 0.00 0.00 0.00 66 1012.0
20260507131927 18 92 4.8 9.7 0.00 0.00 0.00 66 1012.0
20260507131428 18 58 4.8 8.0 0.00 0.00 0.00 66 1013.0
20260507130927 18 108 4.8 9.7 0.00 0.00 0.00 66 1013.0
20260507130427 18 68 3.2 4.8 0.00 0.00 0.00 66 1013.0
20260507125928 18 112 4.8 9.7 0.00 0.00 0.00 66 1013.0
20260507125512 18 120 4.8 11.3 0.00 0.00 0.00 66 1013.0
20260507125429 18 120 4.8 11.3 0.00 0.00 0.00 66 1013.0
20260507124929 18 339 4.8 4.8 0.00 0.00 0.00 66 1013.0
20260507124428 18 4 3.2 9.7 0.00 0.00 0.00 67 1013.0
20260507123928 18 112 3.2 9.7 0.00 0.00 0.00 67 1013.0
20260507123428 18 118 4.8 4.8 0.00 0.00 0.00 67 1013.0
20260507122928 18 168 9.7 12.9 0.00 0.00 0.00 66 1014.0
20260507122428 18 32 3.2 4.8 0.00 0.00 0.00 66 1014.0
20260507121930 18 90 3.2 8.0 0.00 0.00 0.00 67 1014.0
20260507121429 18 81 1.6 3.2 0.00 0.00 0.00 67 1014.0
20260507121427 18 81 1.6 3.2 0.00 0.00 0.00 67 1014.0
20260507120927 18 126 4.8 8.0 0.00 0.00 0.00 67 1014.0
20260507120429 18 117 4.8 8.0 0.00 0.00 0.00 67 1014.0
20260507115928 18 93 1.6 3.2 0.00 0.00 0.00 67 1014.0
20260507115428 18 112 4.8 9.7 0.00 0.00 0.00 67 1014.0
20260507114928 18 105 4.8 8.0 0.00 0.00 0.00 67 1014.0
20260507114428 18 164 4.8 11.3 0.00 0.00 0.00 68 1014.0
20260507113928 18 121 3.2 8.0 0.00 0.00 0.00 67 1014.0
20260507113427 18 112 1.6 3.2 0.00 0.00 0.00 67 1014.0
20260507112928 17 112 3.2 3.2 0.00 0.00 0.00 67 1014.0
20260507112427 17 155 4.8 11.3 0.00 0.00 0.00 67 1014.0
20260507111929 17 114 3.2 8.0 0.00 0.00 0.00 67 1014.0
20260507111429 17 68 3.2 4.8 0.00 0.00 0.00 67 1013.0
20260507110928 17 292 3.2 8.0 0.00 0.00 0.00 67 1013.0
20260507110429 17 3 4.8 4.8 0.00 0.00 0.00 68 1013.0
20260507105928 17 74 3.2 9.7 0.00 0.00 0.00 68 1013.0
20260507105428 17 112 8.0 8.0 0.00 0.00 0.00 68 1013.0
20260507104928 17 0 1.6 1.6 0.00 0.00 0.00 68 1013.0
20260507104428 17 167 3.2 4.8 0.00 0.00 0.00 68 1013.0
20260507103928 17 155 11.3 12.9 0.00 0.00 0.00 68 1013.0
20260507103428 17 89 1.6 8.0 0.00 0.00 0.00 67 1013.0
20260507102928 17 69 1.6 3.2 0.00 0.00 0.00 67 1012.0
20260507102427 17 104 3.2 8.0 0.00 0.00 0.00 68 1012.0
20260507101927 17 90 1.6 1.6 0.00 0.00 0.00 68 1012.0
20260507101429 17 112 4.8 4.8 0.00 0.00 0.00 68 1012.0
20260507100928 17 47 1.6 3.2 0.00 0.00 0.00 68 1012.0
20260507100428 16 162 4.8 9.7 0.00 0.00 0.00 69 1012.0
20260507095928 16 139 3.2 8.0 0.00 0.00 0.00 68 1013.0
20260507095428 16 158 1.6 8.0 0.00 0.00 0.00 68 1013.0
20260507094928 16 112 3.2 4.8 0.00 0.00 0.00 68 1013.0
20260507094428 16 0 3.2 1.6 0.00 0.00 0.00 68 1013.0
20260507093929 16 45 3.2 3.2 0.00 0.00 0.00 68 1013.0
20260507093428 16 112 1.6 1.6 0.00 0.00 0.00 68 1013.0
20260507092927 16 127 1.6 4.8 0.00 0.00 0.00 68 1013.0
20260507092428 16 105 4.8 3.2 0.00 0.00 0.00 68 1013.0
20260507091927 16 37 3.2 3.2 0.00 0.00 0.00 68 1013.0
20260507091427 16 90 1.6 3.2 0.00 0.00 0.00 68 1013.0
20260507090929 16 135 3.2 4.8 0.00 0.00 0.00 68 1013.0
20260507090428 16 158 1.6 3.2 0.00 0.00 0.00 69 1013.0
20260507085928 16 159 3.2 3.2 0.00 0.00 0.00 69 1013.0
20260507085428 15 171 1.6 4.8 0.00 0.00 0.00 69 1013.0
20260507084928 15 135 1.6 0.0 0.00 0.00 0.00 69 1013.0
20260507084428 15 135 1.6 0.0 0.00 0.00 0.00 69 1013.0
20260507083928 15 184 3.2 9.7 0.00 0.00 0.00 69 1013.0
20260507083428 15 152 1.6 4.8 0.00 0.00 0.00 69 1013.0
20260507082927 15 173 4.8 4.8 0.00 0.00 0.00 69 1012.0
20260507082427 15 181 1.6 3.2 0.00 0.00 0.00 69 1012.0
20260507081927 15 163 1.6 3.2 0.00 0.00 0.00 69 1012.0
20260507081427 15 161 1.6 3.2 0.00 0.00 0.00 69 1013.0
20260507080927 15 147 3.2 3.2 0.00 0.00 0.00 69 1013.0
20260507080427 15 133 4.8 8.0 0.00 0.00 0.00 69 1013.0
20260507075929 14 176 1.6 4.8 0.00 0.00 0.00 69 1013.0
20260507075428 14 177 3.2 8.0 0.00 0.00 0.00 70 1013.0
20260507074928 14 178 3.2 4.8 0.00 0.00 0.00 70 1013.0
20260507074428 14 165 3.2 1.6 0.00 0.00 0.00 70 1014.0
20260507073928 13 171 1.6 4.8 0.00 0.00 0.00 70 1014.0
20260507073428 13 179 0.0 3.2 0.00 0.00 0.00 70 1014.0
20260507072928 13 139 0.0 3.2 0.00 0.00 0.00 70 1015.0
20260507072428 13 165 1.6 3.2 0.00 0.00 0.00 70 1015.0
20260507071928 12 135 3.2 3.2 0.00 0.00 0.00 70 1015.0
20260507071427 12 135 1.6 3.2 0.00 0.00 0.00 71 1014.0
20260507070927 12 135 0.0 1.6 0.00 0.00 0.00 71 1014.0
20260507070427 12 135 0.0 1.6 0.00 0.00 0.00 71 1014.0
20260507065927 11 135 0.0 0.0 0.00 0.00 0.00 71 1016.0
20260507065429 11 135 1.6 1.6 0.00 0.00 0.00 71 1016.0
20260507064928 11 135 1.6 1.6 0.00 0.00 0.00 71 1016.0
20260507064428 10 197 1.6 1.6 0.00 0.00 0.00 71 1017.0
20260507063928 10 292 0.0 0.0 0.00 0.00 0.00 71 1017.0
20260507063428 10 292 0.0 1.6 0.00 0.00 0.00 71 1017.0
20260507062928 10 135 0.0 0.0 0.00 0.00 0.00 71 1018.0
20260507062428 9 135 0.0 0.0 0.00 0.00 0.00 70 1018.0
20260507061927 9 135 0.0 0.0 0.00 0.00 0.00 70 1018.0
20260507061428 8 135 0.0 0.0 0.00 0.00 0.00 70 1019.0
20260507060927 8 135 0.0 0.0 0.00 0.00 0.00 70 1019.0
20260507060427 8 135 0.0 0.0 0.00 0.00 0.00 70 1019.0
20260507055927 8 135 0.0 0.0 0.00 0.00 0.00 70 1019.0
20260507055429 8 135 0.0 0.0 0.00 0.00 0.00 70 1019.0
20260507054928 8 135 0.0 0.0 0.00 0.00 0.00 70 1019.0
20260507054428 8 135 0.0 0.0 0.00 0.00 0.00 69 1019.0
20260507053928 7 135 0.0 0.0 0.00 0.00 0.00 69 1019.0
20260507053428 7 135 0.0 0.0 0.00 0.00 0.00 69 1019.0
20260507052928 7 135 0.0 0.0 0.00 0.00 0.00 69 1019.0
20260507052428 7 135 0.0 0.0 0.00 0.00 0.00 69 1019.0
20260507051928 7 22 0.0 0.0 0.00 0.00 0.00 69 1019.0
20260507051427 7 22 0.0 0.0 0.00 0.00 0.00 69 1019.0
20260507050927 7 22 0.0 0.0 0.00 0.00 0.00 69 1019.0
20260507050427 7 22 0.0 0.0 0.00 0.00 0.00 69 1019.0
20260507045929 7 22 0.0 0.0 0.00 0.00 0.00 69 1019.0
20260507045428 7 22 1.6 1.6 0.00 0.00 0.00 69 1019.0
20260507044928 7 339 0.0 1.6 0.00 0.00 0.00 69 1019.0
20260507044428 7 248 0.0 0.0 0.00 0.00 0.00 69 1019.0
20260507043927 7 248 0.0 0.0 0.00 0.00 0.00 69 1019.0
20260507043427 7 248 0.0 0.0 0.00 0.00 0.00 69 1019.0
20260507042927 7 248 0.0 0.0 0.00 0.00 0.00 69 1019.0
20260507042429 7 248 0.0 0.0 0.00 0.00 0.00 69 1019.0
20260507041929 7 248 0.0 0.0 0.00 0.00 0.00 69 1019.0
20260507041429 7 248 0.0 0.0 0.00 0.00 0.00 69 1019.0
20260507040928 8 248 0.0 0.0 0.00 0.00 0.00 69 1019.0
20260507040428 8 248 0.0 0.0 0.00 0.00 0.00 69 1019.0
20260507035928 8 248 0.0 0.0 0.00 0.00 0.00 69 1019.0
20260507035428 8 248 0.0 0.0 0.00 0.00 0.00 69 1019.0
20260507034928 8 248 0.0 0.0 0.00 0.00 0.00 69 1019.0
20260507034428 8 248 0.0 0.0 0.00 0.00 0.00 69 1019.0
20260507033928 8 248 0.0 0.0 0.00 0.00 0.00 69 1019.0
20260507033428 8 248 0.0 0.0 0.00 0.00 0.00 69 1019.0
20260507032927 8 248 0.0 0.0 0.00 0.00 0.00 69 1018.0
20260507032427 8 248 0.0 0.0 0.00 0.00 0.00 69 1018.0
20260507031927 8 248 0.0 0.0 0.00 0.00 0.00 69 1018.0
20260507031427 8 248 0.0 0.0 0.00 0.00 0.00 69 1019.0
20260507030929 8 248 0.0 0.0 0.00 0.00 0.00 69 1019.0
20260507030429 8 248 0.0 0.0 0.00 0.00 0.00 69 1019.0
20260507025929 8 248 0.0 0.0 0.00 0.00 0.00 69 1018.0
20260507025428 8 248 0.0 0.0 0.00 0.00 0.00 68 1018.0
20260507024928 8 248 0.0 0.0 0.00 0.00 0.00 68 1018.0
20260507024428 8 248 0.0 0.0 0.00 0.00 0.00 68 1019.0
20260507023928 8 248 0.0 0.0 0.00 0.00 0.00 68 1019.0
20260507023428 8 248 0.0 0.0 0.00 0.00 0.00 68 1019.0
20260507022928 8 248 0.0 0.0 0.00 0.00 0.00 68 1019.0
20260507022428 8 248 0.0 0.0 0.00 0.00 0.00 68 1019.0
20260507021928 8 248 0.0 0.0 0.00 0.00 0.00 69 1019.0
20260507021428 8 248 0.0 0.0 0.00 0.00 0.00 68 1019.0
20260507020928 8 248 0.0 0.0 0.00 0.00 0.00 68 1019.0
20260507020428 8 248 0.0 0.0 0.00 0.00 0.00 68 1019.0
20260507015927 9 248 0.0 0.0 0.00 0.00 0.00 68 1019.0
20260507015427 9 248 0.0 0.0 0.00 0.00 0.00 69 1019.0
20260507014929 9 248 0.0 0.0 0.00 0.00 0.00 69 1019.0
20260507014430 9 292 0.0 1.6 0.00 0.00 0.00 69 1019.0
20260507013928 9 300 1.6 3.2 0.00 0.00 0.00 69 1019.0
20260507013428 9 283 1.6 3.2 0.00 0.00 0.00 68 1019.0
20260507012928 9 270 0.0 1.6 0.00 0.00 0.00 68 1019.0
20260507012428 9 270 0.0 1.6 0.00 0.00 0.00 68 1019.0
20260507011927 9 270 0.0 1.6 0.00 0.00 0.00 68 1019.0
20260507011427 9 270 1.6 1.6 0.00 0.00 0.00 68 1018.0
20260507010929 9 289 1.6 1.6 0.00 0.00 0.00 68 1018.0
20260507010429 9 270 1.6 1.6 0.00 0.00 0.00 68 1018.0
20260507005928 9 292 1.6 3.2 0.00 0.00 0.00 68 1018.0
20260507005428 9 288 3.2 3.2 0.00 0.00 0.00 68 1018.0
20260507004928 9 270 1.6 3.2 0.00 0.00 0.00 68 1018.0
20260507004428 9 292 0.0 1.6 0.00 0.00 0.00 68 1018.0
20260507003928 9 292 0.0 1.6 0.00 0.00 0.00 68 1018.0
20260507003428 9 269 1.6 1.6 0.00 0.00 0.00 68 1018.0
20260507002928 9 276 3.2 3.2 0.00 0.00 0.00 68 1019.0
20260507002427 9 282 1.6 3.2 0.00 0.00 0.00 68 1019.0
20260507001929 9 270 1.6 3.2 0.00 0.00 0.00 68 1019.0
20260507001429 10 288 1.6 3.2 0.00 0.00 0.00 68 1019.0
20260507000929 10 263 1.6 1.6 0.00 0.00 0.00 68 1019.0
20260507000428 10 248 1.6 1.6 0.00 0.00 0.00 68 1019.0
20260506235928 10 270 1.6 1.6 0.00 0.00 0.00 69 1019.0
20260506235428 10 248 1.6 1.6 0.00 0.00 0.00 69 1019.0
20260506234928 10 256 3.2 3.2 0.00 0.00 0.00 69 1019.0
20260506234428 10 282 3.2 8.0 0.00 0.00 0.00 68 1019.0
20260506233928 10 278 3.2 3.2 0.00 0.00 0.00 68 1019.0
20260506233428 10 292 1.6 3.2 0.00 0.00 0.00 68 1019.0
20260506232928 10 270 1.6 1.6 0.00 0.00 0.00 68 1019.0
20260506232428 10 292 0.0 1.6 0.00 0.00 0.00 68 1019.0
20260506231927 10 292 0.0 1.6 0.00 0.00 0.00 68 1019.0
20260506231427 10 292 0.0 0.0 0.00 0.00 0.00 68 1018.0
20260506230927 10 292 0.0 0.0 0.00 0.00 0.00 68 1018.0
20260506230427 10 270 1.6 1.6 0.00 0.00 0.00 68 1018.0
20260506225927 10 248 0.0 1.6 0.00 0.00 0.00 68 1019.0
20260506225427 10 248 0.0 1.6 0.00 0.00 0.00 68 1019.0
20260506224927 10 248 0.0 1.6 0.00 0.00 0.00 68 1019.0
20260506224427 10 225 0.0 1.6 0.00 0.00 0.00 68 1019.0
20260506223929 10 270 1.6 1.6 0.00 0.00 0.00 68 1019.0
20260506223429 10 292 1.6 1.6 0.00 0.00 0.00 68 1019.0
20260506222929 10 287 1.6 3.2 0.00 0.00 0.00 68 1019.0
20260506222428 10 277 1.6 3.2 0.00 0.00 0.00 68 1019.0
20260506221928 10 270 1.6 1.6 0.00 0.00 0.00 68 1019.0
20260506221428 10 292 0.0 1.6 0.00 0.00 0.00 68 1019.0
20260506220928 11 235 0.0 1.6 0.00 0.00 0.00 68 1019.0
20260506220428 11 270 0.0 4.8 0.00 0.00 0.00 68 1019.0
20260506215928 11 270 1.6 4.8 0.00 0.00 0.00 67 1019.0
20260506215428 11 292 1.6 1.6 0.00 0.00 0.00 67 1019.0
20260506214928 11 255 1.6 3.2 0.00 0.00 0.00 67 1019.0
20260506214428 11 315 0.0 0.0 0.00 0.00 0.00 67 1019.0
20260506213928 11 315 3.2 1.6 0.00 0.00 0.00 67 1019.0
20260506213427 11 270 1.6 1.6 0.00 0.00 0.00 67 1019.0
20260506212927 11 261 0.0 1.6 0.00 0.00 0.00 68 1019.0
20260506212427 11 286 1.6 3.2 0.00 0.00 0.00 68 1019.0
20260506211927 11 279 3.2 9.7 0.00 0.00 0.00 68 1019.0
20260506211427 11 292 1.6 3.2 0.00 0.00 0.00 68 1018.0
20260506210929 11 299 1.6 3.2 0.00 0.00 0.00 68 1018.0
20260506210428 11 296 1.6 4.8 0.00 0.00 0.00 68 1018.0
20260506205928 12 292 1.6 3.2 0.00 0.00 0.00 67 1018.0
20260506205428 12 324 3.2 3.2 0.00 0.00 0.00 68 1018.0
20260506204928 12 282 3.2 3.2 0.00 0.00 0.00 68 1018.0
20260506204428 12 259 4.8 4.8 0.00 0.00 0.00 68 1018.0
20260506203928 12 317 3.2 3.2 0.00 0.00 0.00 68 1018.0
20260506203427 12 315 3.2 4.8 0.00 0.00 0.00 68 1018.0
20260506202927 12 281 1.6 3.2 0.00 0.00 0.00 67 1017.0
20260506202427 12 248 0.0 1.6 0.00 0.00 0.00 67 1017.0
20260506201929 12 267 1.6 4.8 0.00 0.00 0.00 67 1017.0
20260506201428 12 279 1.6 3.2 0.00 0.00 0.00 67 1017.0
20260506200928 12 272 1.6 4.8 0.00 0.00 0.00 67 1017.0
20260506200427 12 262 3.2 4.8 0.00 0.00 0.00 67 1017.0
20260506195927 12 278 1.6 8.0 0.00 0.00 0.00 67 1017.0
20260506195429 12 267 3.2 4.8 0.00 0.00 0.00 67 1017.0
20260506194928 12 290 4.8 8.0 0.00 0.00 0.00 67 1017.0
20260506194428 12 267 4.8 8.0 0.00 0.00 0.00 67 1017.0
20260506193928 12 265 3.2 4.8 0.00 0.00 0.00 67 1017.0
20260506193427 12 338 3.2 3.2 0.00 0.00 0.00 67 1017.0
20260506192927 13 260 1.6 8.0 0.00 0.00 0.00 67 1017.0
20260506192428 13 278 3.2 3.2 0.00 0.00 0.00 67 1017.0
20260506191928 13 283 3.2 3.2 0.00 0.00 0.00 67 1017.0
20260506191428 13 271 3.2 8.0 0.00 0.00 0.00 67 1016.0
20260506190928 13 283 4.8 9.7 0.00 0.00 0.00 67 1016.0
20260506190428 13 292 4.8 4.8 0.00 0.00 0.00 67 1016.0
20260506185927 13 270 8.0 9.7 0.00 0.00 0.00 67 1016.0
20260506185427 13 298 3.2 4.8 0.00 0.00 0.00 67 1016.0
20260506184927 13 292 3.2 3.2 0.00 0.00 0.00 67 1016.0
20260506184427 13 279 11.3 12.9 0.00 0.00 0.00 67 1016.0
20260506183927 14 308 11.3 16.1 0.00 0.00 0.00 67 1016.0
20260506183427 14 265 4.8 14.5 0.00 0.00 0.00 67 1016.0
20260506182928 14 301 4.8 12.9 0.00 0.00 0.00 67 1015.0
20260506182428 14 289 4.8 8.0 0.00 0.00 0.00 67 1015.0
20260506181928 14 295 4.8 8.0 0.00 0.00 0.00 67 1015.0
20260506181428 14 262 9.7 12.9 0.00 0.00 0.00 67 1014.0
20260506180928 14 298 4.8 9.7 0.00 0.00 0.00 67 1014.0
20260506180428 14 259 9.7 14.5 0.00 0.00 0.00 67 1014.0
20260506175927 14 296 8.0 8.0 0.00 0.00 0.00 67 1015.0
20260506175427 15 261 11.3 14.5 0.00 0.00 0.00 67 1015.0
20260506174927 15 302 4.8 4.8 0.00 0.00 0.00 67 1015.0
20260506174427 15 275 9.7 11.3 0.00 0.00 0.00 67 1015.0
20260506173927 15 292 9.7 12.9 0.00 0.00 0.00 68 1015.0
20260506173427 15 266 11.3 16.1 0.00 0.00 0.00 68 1015.0
20260506172928 15 252 9.7 11.3 0.00 0.00 0.00 68 1015.0